Regional Weather Roundup
Issued by NWS Bismarck, ND

Home | Current Version | Previous Version | Text Only | Print | Product List | Glossary On
Versions: 1 2 3 4 5 6 7 8 9 10 11 12 13 14 15 16 17 18 19 20 21 22 23 24 25 26 27 28 29 30 31 32 33 34 35 36 37 38 39 40 41 42 43 44 45 46 47 48 49 50
000
ASUS43 KBIS 230820
RWRBIS

NWR BROADCAST TEXT
NATIONAL WEATHER SERVICE BISMARCK ND
300 AM CDT WED APR 23 2014

NOTE: "FAIR" INDICATES FEW OR NO CLOUDS BELOW 12,000 FEET WITH NO
SIGNIFICANT WEATHER AND/OR OBSTRUCTIONS TO VISIBILITY.


CITY           SKY/WX    TMP DP  RH WIND       PRES   REMARKS
WILLISTON      CLOUDY    52  33  48 E25G40    29.51F
MINOT          MOCLDY    47  33  58 E20G25    29.71F
MINOT AFB      MOCLDY    46  34  63 SE23      29.71F
BISMARCK       CLOUDY    52  40  63 SE24G31   29.70S
DICKINSON      CLOUDY    52  33  48 E18G28    29.53F
GARRISON         N/A     50  35  56 E18G25    29.67F
HETTINGER ARPT CLOUDY    51  33  50 E15       29.51F
JAMESTOWN      CLOUDY    50  35  56 SE23G31   29.83F
CARRINGTON     PTSUNNY   46  36  66 SE24G33   29.81F
CROSBY         FAIR      48  34  57 E23G30    29.60F
HARVEY         FAIR      46  36  66 SE23G30   29.76F
HAZEN          PTSUNNY   54  37  54 SE15G28   29.64F
LINTON         FAIR      54  37  54 SE24G35   29.67F
MANDAN         CLOUDY    50  39  66 SE26G35   29.69S
OAKES          PTSUNNY   46  45  93 SE20G25   29.87F FOG
RUGBY          FAIR      41  32  70 E21G26    29.79F
STANLEY        FAIR      46  34  61 E17G26    29.65F
TIOGA          FAIR      48  32  53 SE25G33   29.63F
WATFORD CITY   FAIR      54  32  43 SE25G35   29.50F
$$

CITY           SKY/WX    TMP DP  RH WIND       PRES   REMARKS
GRAND FORKS    PTCLDY    44  27  51 SE12      29.95F
GRAND FORKS AF PTCLDY    40  29  63 SE10      29.95S
DEVILS LAKE    PTCLDY    43  30  61 SE17G23   29.86F
FARGO          CLOUDY    47  28  47 SE13      29.94F
CANDO          FAIR      41  32  70 E16G22    29.87F
CAVALIER       FAIR      36  30  80 SE5       29.97S
GRAFTON        FAIR      39  28  65 SE10      29.96S
GWINNER        PTSUNNY   48  39  71 SE20G26   29.91S
LANGDON        FAIR      39  27  60 SE15      29.92S
ROLLA          FAIR      39  32  75 SE14      29.88F
WALHALLA       PTSUNNY   34  34 100 SE6       29.97S
$$

CITY           SKY/WX    TMP DP  RH WIND       PRES   REMARKS
ABERDEEN       CLOUDY    51  39  63 SE21      29.80F
MOBRIDGE       CLOUDY    56  33  42 SE25G33   29.61F
BUFFALO          N/A     52  39  61 E14       29.38F
RAPID CITY     PTCLDY    54  44  69 SE13      29.51F
GLASGOW        PTCLDY    55  31  39 E29G37    29.34F
SIDNEY         CLOUDY    55  32  41 SE20      29.47F
WOLF POINT     MOCLDY    57  31  37 E22G30    29.42F
GLENDIVE       CLOUDY    54  32  43 E15G24    29.41F
MILES CITY     CLOUDY    55  38  52 NE9       29.32F
BAKER          CLOUDY    52  36  54 E15       29.42F
$$

CITY           SKY/WX    TMP DP  RH WIND       PRES   REMARKS
BILLINGS       CLOUDY    50  37  61 W18G31    29.46R
GREAT FALLS    LGT RAIN  42  39  89 W13       29.56F
REGINA         MOCLDY    48  34  57 E26G36    29.63F
ESTEVAN        CLOUDY    46  34  61 SE21G28   29.65F
$$




USA.gov is the U.S. government's official web portal to all federal, state and local government web resources and services.